When you browse on this site, cookies collect data to enhance your experience and personalize the content and advertising you see.
Visit our Privacy Policy to learn more. By continuing to use the site, you agree to this use of cookies and data.
  • In France
  • List of Countries
  • For 7 days
  • Water Temperature
  • Satellite Maps
  • Weather Map
  • Weather Widgets
  • user-avatar
    Login

    Hourly Weather Veliko Tarnovo

    Today, 23 March, Saturday

    Time Temperature Precipitation Wind Pressure Humidity
    00:00 +9°C° 0 mm 1 mps 745 mmHg 62%
    01:00 +9°C° 0 mm 1 mps 745 mmHg 63%
    02:00 +8°C° 0 mm 1 mps 745 mmHg 63%
    03:00 +7°C° 0 mm 0 mps 745 mmHg 64%
    04:00 +7°C° 0 mm 0 mps 745 mmHg 65%
    05:00 +6°C° 0 mm 0 mps 745 mmHg 66%
    06:00 +7°C° 0 mm 0 mps 745 mmHg 65%
    07:00 +8°C° 0 mm 0 mps 745 mmHg 63%
    08:00 +10°C° 0 mm 0 mps 745 mmHg 59%
    09:00 +12°C° 0 mm 1 mps 745 mmHg 57%
    10:00 +13°C° 0 mm 1 mps 744 mmHg 54%
    11:00 +15°C° 0 mm 2 mps 744 mmHg 51%
    12:00 +15°C° 0 mm 2 mps 744 mmHg 50%
    13:00 +16°C° 0 mm 2 mps 744 mmHg 49%
    14:00 +16°C° 0 mm 2 mps 743 mmHg 47%
    15:00 +16°C° 0 mm 2 mps 743 mmHg 49%
    16:00 +14°C° 0 mm 3 mps 743 mmHg 52%
    17:00 +14°C° 0 mm 3 mps 742 mmHg 54%
    18:00 +12°C° 0 mm 3 mps 743 mmHg 57%
    19:00 +11°C° 0 mm 3 mps 743 mmHg 61%
    20:00 +9°C° 0 mm 3 mps 743 mmHg 64%
    21:00 +9°C° 0 mm 3 mps 744 mmHg 57%
    22:00 +9°C° 0 mm 3 mps 744 mmHg 50%
    23:00 +9°C° 0 mm 3 mps 745 mmHg 43%

    Tomorrow, 24 March, Sunday

    Time Temperature Precipitation Wind Pressure Humidity
    00:00 +8°C° 0 mm 2 mps 745 mmHg 43%
    01:00 +8°C° 0 mm 2 mps 745 mmHg 43%
    02:00 +9°C° 0 mm 1 mps 745 mmHg 42%
    03:00 +8°C° 0 mm 1 mps 745 mmHg 44%
    04:00 +7°C° 0 mm 1 mps 744 mmHg 45%
    05:00 +7°C° 0 mm 1 mps 744 mmHg 47%
    06:00 +6°C° 0 mm 0 mps 744 mmHg 45%
    07:00 +7°C° 0 mm 0 mps 744 mmHg 43%
    08:00 +8°C° 0 mm 0 mps 744 mmHg 41%
    09:00 +10°C° 0 mm 1 mps 744 mmHg 39%
    10:00 +11°C° 0 mm 1 mps 744 mmHg 36%
    11:00 +13°C° 0 mm 1 mps 744 mmHg 34%
    12:00 +13°C° 0 mm 1 mps 744 mmHg 34%
    13:00 +14°C° 0 mm 2 mps 743 mmHg 33%
    14:00 +15°C° 0 mm 2 mps 743 mmHg 33%
    15:00 +15°C° 0 mm 2 mps 742 mmHg 34%
    16:00 +15°C° 0 mm 2 mps 742 mmHg 35%
    17:00 +14°C° 0 mm 1 mps 741 mmHg 36%
    18:00 +13°C° 0 mm 1 mps 741 mmHg 41%
    19:00 +11°C° 0 mm 1 mps 741 mmHg 45%
    20:00 +10°C° 0 mm 1 mps 741 mmHg 49%
    21:00 +10°C° 0 mm 1 mps 741 mmHg 49%
    22:00 +9°C° 0 mm 1 mps 741 mmHg 49%
    23:00 +9°C° 0 mm 1 mps 741 mmHg 49%

    Day after tomorrow, 25 March, Monday

    Time Temperature Precipitation Wind Pressure Humidity
    00:00 +9°C° 0 mm 1 mps 741 mmHg 50%
    01:00 +8°C° 0 mm 1 mps 741 mmHg 51%
    02:00 +7°C° 0 mm 2 mps 741 mmHg 52%
    03:00 +7°C° 0 mm 2 mps 740 mmHg 53%
    04:00 +7°C° 0 mm 2 mps 740 mmHg 54%
    05:00 +6°C° 0 mm 2 mps 739 mmHg 55%
    06:00 +7°C° 0 mm 2 mps 739 mmHg 54%
    07:00 +8°C° 0 mm 2 mps 739 mmHg 53%
    08:00 +9°C° 0 mm 2 mps 739 mmHg 52%
    09:00 +13°C° 0 mm 2 mps 738 mmHg 46%
    10:00 +15°C° 0 mm 2 mps 738 mmHg 39%
    11:00 +18°C° 0 mm 2 mps 738 mmHg 32%
    12:00 +18°C° 0 mm 2 mps 737 mmHg 30%
    13:00 +19°C° 0 mm 2 mps 737 mmHg 28%
    14:00 +20°C° 0 mm 2 mps 736 mmHg 25%
    15:00 +21°C° 0 mm 1 mps 735 mmHg 27%
    16:00 +21°C° 0 mm 1 mps 735 mmHg 28%
    17:00 +20°C° 0 mm 1 mps 735 mmHg 30%
    18:00 +18°C° 0 mm 1 mps 734 mmHg 35%
    19:00 +15°C° 0 mm 2 mps 734 mmHg 40%
    20:00 +13°C° 0 mm 2 mps 734 mmHg 46%
    21:00 +13°C° 0 mm 2 mps 734 mmHg 49%
    22:00 +11°C° 0 mm 3 mps 734 mmHg 52%
    23:00 +10°C° 0 mm 3 mps 734 mmHg 56%

    26 March, Tuesday

    Time Temperature Precipitation Wind Pressure Humidity
    00:00 +10°C° 0 mm 3 mps 734 mmHg 57%
    01:00 +10°C° 0 mm 3 mps 734 mmHg 57%
    02:00 +9°C° 0 mm 2 mps 734 mmHg 58%
    03:00 +9°C° 0 mm 2 mps 734 mmHg 59%
    04:00 +9°C° 0 mm 2 mps 734 mmHg 60%
    05:00 +9°C° 0 mm 2 mps 734 mmHg 61%
    06:00 +9°C° 0 mm 3 mps 735 mmHg 62%
    07:00 +10°C° 0 mm 4 mps 735 mmHg 63%
    08:00 +10°C° 0 mm 6 mps 735 mmHg 64%
    09:00 +10°C° 0 mm 6 mps 736 mmHg 63%
    10:00 +10°C° 0 mm 6 mps 736 mmHg 61%
    11:00 +10°C° 0 mm 7 mps 736 mmHg 60%
    12:00 +10°C° 0.1 mm 7 mps 736 mmHg 60%
    13:00 +10°C° 0.1 mm 6 mps 737 mmHg 61%
    14:00 +10°C° 0.1 mm 6 mps 737 mmHg 61%
    15:00 +9°C° 0.5 mm 5 mps 737 mmHg 66%
    16:00 +10°C° 0.5 mm 4 mps 738 mmHg 70%
    17:00 +9°C° 0.5 mm 3 mps 738 mmHg 75%
    18:00 +8°C° 0.1 mm 2 mps 739 mmHg 79%
    19:00 +8°C° 0.1 mm 2 mps 740 mmHg 82%
    20:00 +7°C° 0.1 mm 2 mps 740 mmHg 86%
    21:00 +8°C° 0.1 mm 1 mps 741 mmHg 86%
    22:00 +8°C° 0.1 mm 1 mps 741 mmHg 86%
    23:00 +7°C° 0.1 mm 1 mps 742 mmHg 86%

    27 March, Wednesday

    Time Temperature Precipitation Wind Pressure Humidity
    00:00 +7°C° 0 mm 1 mps 742 mmHg 86%
    01:00 +7°C° 0 mm 1 mps 742 mmHg 86%
    02:00 +7°C° 0 mm 1 mps 742 mmHg 86%
    03:00 +6°C° 0 mm 1 mps 743 mmHg 86%
    04:00 +6°C° 0 mm 1 mps 743 mmHg 86%
    05:00 +6°C° 0 mm 1 mps 743 mmHg 86%
    06:00 +6°C° 0.1 mm 1 mps 743 mmHg 82%
    07:00 +5°C° 0.1 mm 2 mps 744 mmHg 77%
    08:00 +5°C° 0.1 mm 2 mps 744 mmHg 72%
    09:00 +6°C° 0.1 mm 2 mps 744 mmHg 68%
    10:00 +7°C° 0.1 mm 2 mps 745 mmHg 63%
    11:00 +8°C° 0.1 mm 2 mps 745 mmHg 59%
    12:00 +9°C° 0.1 mm 2 mps 745 mmHg 58%
    13:00 +9°C° 0.1 mm 2 mps 745 mmHg 57%
    14:00 +10°C° 0.1 mm 2 mps 744 mmHg 56%
    15:00 +10°C° 0.1 mm 2 mps 744 mmHg 56%
    16:00 +9°C° 0.1 mm 2 mps 744 mmHg 57%
    17:00 +9°C° 0.1 mm 2 mps 744 mmHg 57%
    18:00 +9°C° 0.1 mm 2 mps 745 mmHg 61%
    19:00 +8°C° 0.1 mm 2 mps 745 mmHg 65%
    20:00 +8°C° 0.1 mm 1 mps 746 mmHg 69%
    21:00 +8°C° 0.1 mm 1 mps 746 mmHg 71%
    22:00 +8°C° 0.1 mm 1 mps 746 mmHg 73%
    23:00 +8°C° 0.1 mm 1 mps 746 mmHg 74%

    28 March, Thursday

    Time Temperature Precipitation Wind Pressure Humidity
    00:00 +7°C° 0 mm 1 mps 747 mmHg 76%
    01:00 +6°C° 0 mm 1 mps 747 mmHg 78%
    02:00 +6°C° 0 mm 1 mps 747 mmHg 79%
    03:00 +5°C° 0 mm 1 mps 747 mmHg 80%
    04:00 +4°C° 0 mm 2 mps 747 mmHg 80%
    05:00 +3°C° 0 mm 2 mps 748 mmHg 80%
    06:00 +4°C° 0 mm 2 mps 748 mmHg 73%
    07:00 +4°C° 0 mm 2 mps 748 mmHg 67%
    08:00 +5°C° 0 mm 2 mps 749 mmHg 60%
    09:00 +5°C° 0 mm 3 mps 749 mmHg 53%
    10:00 +7°C° 0 mm 3 mps 749 mmHg 46%
    11:00 +7°C° 0 mm 4 mps 749 mmHg 39%
    12:00 +8°C° 0 mm 4 mps 749 mmHg 38%
    13:00 +8°C° 0 mm 4 mps 749 mmHg 36%
    14:00 +10°C° 0 mm 4 mps 748 mmHg 35%
    15:00 +8°C° 0 mm 4 mps 748 mmHg 35%
    16:00 +8°C° 0 mm 4 mps 748 mmHg 36%
    17:00 +7°C° 0 mm 4 mps 748 mmHg 36%
    18:00 +7°C° 0 mm 3 mps 748 mmHg 40%
    19:00 +5°C° 0 mm 2 mps 749 mmHg 43%
    20:00 +5°C° 0 mm 1 mps 749 mmHg 47%
    21:00 +4°C° 0 mm 1 mps 749 mmHg 48%
    22:00 +3°C° 0 mm 0 mps 749 mmHg 48%
    23:00 +2°C° 0 mm 0 mps 750 mmHg 49%
    Show more